Location: ??????
(38.3184°N, 23.6932°E)
Time: 20:26:06
(UTC+00:00)

STARLINK-5243 - Pass Details

Date: 02 December 2022
Orbit: 539 x 540 km, 53.2° (Epoch: 30 January)

Event Time Altitude Azimuth Distance (km) Brightness Sun altitude
Rises 17:27:10 0° 214° (SW) 2,678 ? -27.3°
Reaches altitude 10° 17:29:25 10° 209° (SSW) 1,791 ? -27.7°
Enters shadow 17:30:47 20° 202° (SSW) 1,280 ? -28.0°
